Weather Roundup
Issued by NWS Corpus Christi, TX

Home | Current Version | Previous Version | Text Only | Print | Product List | Glossary On
Versions: 1 2 3 4 5 6 7 8 9 10 11 12 13 14 15 16 17 18 19 20 21 22 23 24 25 26 27 28 29 30 31 32 33 34 35 36 37 38 39 40 41 42 43 44 45 46 47 48 49 50
000
ASUS44 KCRP 220810
HRRCRP

SOUTH TEXAS REGIONAL WEATHER ROUNDUP
NATIONAL WEATHER SERVICE CORPUS CHRISTI TX
200 AM CST SUN JAN 22 2017


TXZ229>244-220900-
...CORPUS CHRISTI AREA OBSERVATIONS...

CITY           SKY/WX    TMP DP  RH WIND       PRES   REMARKS
CORPUS CHRISTI PTCLDY    64  42  44 NW16      29.67R
NAS CORPUS CHR PTCLDY    66  46  48 NW21      29.66R
ROCKPORT       CLEAR     65  46  50 NW10      29.65R
KINGSVILLE NAS PTCLDY    64  43  46 NW14      29.68R
ALICE          PTCLDY    65  37  35 NW21G28   29.68R
ORANGE GROVE   PTCLDY    64  39  39 NW15      29.70S
FALFURRIAS     CLEAR     66  36  33 NW13G20   29.69R
$$

...VICTORIA AREA OBSERVATIONS...

CITY           SKY/WX    TMP DP  RH WIND       PRES   REMARKS
VICTORIA       PTCLDY    61  43  51 W9        29.64R
BEEVILLE       FAIR      63  41  44 NW15G25   29.67S
PLEASANTON     CLEAR     64  30  28 W22G41    29.68R
SAN ANTONIO    PTCLDY    61  26  26 NW26G38   29.64S
$$

...LAREDO AREA OBSERVATIONS...

CITY           SKY/WX    TMP DP  RH WIND       PRES   REMARKS
LAREDO         CLEAR     60  39  45 NW7       29.74R
COTULLA        CLEAR     67  26  21 NW33G49   29.69R
DEL RIO        CLEAR     60  24  25 W28G41    29.72F
MCALLEN        CLEAR     70  41  34 N17G24    29.68R
HEBBRONVILLE   PTCLDY    62  37  40 N17G23    29.71S
$$

...OTHER TEXAS OBSERVATIONS...

CITY           SKY/WX    TMP DP  RH WIND       PRES   REMARKS
BROWNSVILLE    CLEAR     69  44  40 NW14G23   29.64R
HOUSTON        CLOUDY    61  51  70 SW5       29.55F
COL. STATION   CLOUDY    60  41  49 W13G23    29.54F
AUSTIN         CLOUDY    63  29  27 W15G32    29.58R
WACO           CLEAR     55  37  50 W17       29.49S
FORT WORTH     MOCLDY    58  39  49 W15       29.38S
WICHITA FALLS  CLEAR     49  32  52 SW15      29.35S
LUBBOCK        CLOUDY    45  30  55 NW29G37   29.54R
EL PASO        CLEAR     42  23  46 W23G35    30.01R
$$

...MARINE OBSERVATIONS...

STATION/POSITION TIME  SKY/WX   TEMP    WIND        PRES    VSBY  WAVE   SWELL
                                AIR SEA DIR/SP/G                  HT/PER HT/PER
                 (UTC)          (F)     (DEG/KT/KT) (MB)    (MI)  (FT/S) (FT/S)
PORT ARANSAS     0700            68 64  330/ 14/ 17 1003.2R
BUOY 90 E PORT A 0650            72 73  320/ 16/ 21 1000.7          4/ 7
BUOY 45 SE BAFFI 0650            71     350/ 29/ 37  999.9          4/ 8   3/ 8
BUOY 200 E PT IS 0650            75 74  190/ 16/ 19  998.7          6/ 8   3/ 8
BUOY 15 E GALVES 0650            68 67  300/ 19/ 25 1001.0          3/ 6   2/ 7
$$



USA.gov is the U.S. government's official web portal to all federal, state and local government web resources and services.